User: anonymous   Login
Location: Unspecified
(0.0000°N, 0.0000°E)
Time: 17:49:00
(UTC+00:00)
Language:

COSMOS 2497 - Orbit

View from above orbital plane
View from above orbital plane
View from above satellite
View from above satellite

Ground track
Ground track

The orbit data is extracted from the following two-line orbital elements,

1 39762U 14028B   18049.61407950  .00000040  00000-0  21538-3 0  9992
2 39762  82.4486 213.7895 0020080 213.2265 146.7555 12.42884750169861
Epoch (UTC): 18 February 2018 14:44:16
Eccentricity: 0.0020080
inclination: 82.4486°
perigee height: 1478 km
apogee height: 1510 km
right ascension of ascending node: 213.7895°
argument of perigee: 213.2265°
revolutions per day: 12.42884750
mean anomaly at epoch: 146.7555°
orbit number at epoch: 16986

The dashed part of the orbit path shows where the satellite is in the earth's shadow,  

DLR